Вернуться в каталог

STARLINK-4304

АктивенСвязьVLEO
NORAD 53414·PAYLOAD·🇺🇸 United States

Запущен Aug 10, 2022 с Cape Canaveral Space Force Station

Loading…

Ближайшие Пролёты (ближайшие 24 часа)

TLE

СвежийSource: CelesTrak SupGP

Эпоха: Sep 15, 2026, 02:51 UTC

1 53414C 22097AC  26258.11923611  .00050019  00000+0  14778-2 0  2585
2 53414  53.1576 333.0016 0001123  93.8324 294.0520 15.34366118    19

Отслеживайте STARLINK-4304 в реальном времени с AllMySat

Download on the App Store